This is the latest recevied weather packets stored in our database for station/object AB8Y-13. If no packets are shown the sender has not sent any weather packets the latest 10 day(s).
| Time | Temp. | Humidity | Pressure | Rain* | Wind** | Luminosity | Snow |
|---|---|---|---|---|---|---|---|
| 1777810950 | 8.33° C | 54% | 1012.6 hPa | 0 mm | - | 226 W/m² | - |
| 1777810645 | 7.78° C | 52% | 1012.8 hPa | 0 mm | - | 186 W/m² | - |
| 1777810343 | 7.78° C | 55% | 1012.4 hPa | 0 mm | - | 177 W/m² | - |
| 1777810039 | 7.22° C | 56% | 1012.8 hPa | 0 mm | - | 170 W/m² | - |
| 1777809737 | 6.67° C | 58% | 1012.7 hPa | 0 mm | - | 137 W/m² | - |
| 1777809434 | 6.67° C | 57% | 1012.8 hPa | 0 mm | - | 99 W/m² | - |
| 1777809132 | 6.11° C | 57% | 1012.4 hPa | 0 mm | - | 80 W/m² | - |
| 1777808830 | 6.67° C | 54% | 1012.6 hPa | 0 mm | - | 63 W/m² | - |
| 1777808526 | 6.11° C | 57% | 1012.7 hPa | 0 mm | - | 80 W/m² | - |
| 1777808223 | 6.11° C | 60% | 1012.4 hPa | 0 mm | - | 77 W/m² | - |
| 1777807922 | 5.56° C | 57% | 1012.7 hPa | 0 mm | - | 71 W/m² | - |
| 1777807619 | 5° C | 58% | 1012.7 hPa | 0 mm | - | 65 W/m² | - |
| 1777807316 | 5° C | 60% | 1012.6 hPa | 0 mm | - | 48 W/m² | - |
| 1777807012 | 4.44° C | 61% | 1012.7 hPa | 0 mm | - | 44 W/m² | - |
| 1777806709 | 3.89° C | 63% | 1012.3 hPa | 0 mm | - | 39 W/m² | - |
| 1777806404 | 3.89° C | 63% | 1012.7 hPa | 0 mm | - | 33 W/m² | - |
| 1777806102 | 3.89° C | 63% | 1012.6 hPa | 0 mm | - | 31 W/m² | - |
| 1777805798 | 3.89° C | 62% | 1012.6 hPa | 0 mm | - | 28 W/m² | - |
| 1777805496 | 3.33° C | 63% | 1012.7 hPa | 0 mm | - | 22 W/m² | - |
| 1777805193 | 3.33° C | 62% | 1012.7 hPa | 0 mm | - | 17 W/m² | - |
| 1777804891 | 3.33° C | 63% | 1012.8 hPa | 0 mm | - | 13 W/m² | - |
| 1777804589 | 2.78° C | 65% | 1012.6 hPa | 0 mm | - | 9 W/m² | - |
| 1777804286 | 3.33° C | 63% | 1012.6 hPa | 0 mm | - | 6 W/m² | - |
| 1777803983 | 2.78° C | 63% | 1012.6 hPa | 0 mm | - | 3 W/m² | - |
| 1777803679 | 2.78° C | 65% | 1012.7 hPa | 0 mm | - | 2 W/m² | - |
* Rain latest hour (hover to see other rain measurements)
** Current wind speed in m/s (hover to see current wind gust speed)